Location: Azul
(36.7830°S, 59.8500°W)
Time: 02:27:55
(UTC-03:00)

HuskySat-1 - Pass Details

Date: 25 October 2021
Orbit: 443 x 456 km, 51.6° (Epoch: 04 December)

Event Time Altitude Azimuth Distance (km) Brightness Sun altitude
Rises 22:14:23 0° 280° (W) 2,492 ? -29.6°
Reaches altitude 10° 22:16:49 10° 266° (W) 1,622 ? -29.9°
Enters shadow 22:18:05 17° 250° (WSW) 1,252 ? -30.1°
